Location: Banksville Park
(38.5557°N, 75.1182°W)
Time: 11:51:44
(UTC+00:00)

Cosmos 1844 - Pass Details

Date: 19 September 2020
Orbit: 824 x 866 km, 70.9° (Epoch: 23 October)

Event Time Altitude Azimuth Distance (km) Brightness Sun altitude
Rises 00:29:03 0° 182° (S) 3,416 6.7 -17.4°
Reaches altitude 10° 00:31:36 10° 176° (S) 2,478 5.9 -17.9°
Maximum altitude 00:36:57 44° 106° (ESE) 1,167 3.9 -18.9°
Drops below altitude 10° 00:42:17 10° 36° (NE) 2,467 5.9 -19.9°
Sets 00:44:49 0° 30° (NNE) 3,399 6.7 -20.4°
